Location: Goll?ig?dem
(16.6773°N, 80.7332°E)
Time: 00:35:25
(UTC+00:00)

Milstar 3 - Pass Details

Date: 21 April 2021
Orbit: 1089 x 5155 km, 28.3° (Epoch: 07 April)

Event Time Altitude Azimuth Distance (km) Brightness Sun altitude
Exits shadow 21:15:31 36° 6° (N) 1,891 4.1 -41.1°
Drops below altitude 10° 21:23:35 10° 66° (ENE) 3,995 6.3 -39.5°
Sets 21:28:07 0° 75° (ENE) 5,526 7.3 -38.5°
